Weather History for Pompano Beach, FL

Change the Weather History Date:

Sunday, November 4, 2012

  Actual Average Record
Temperature  
Mean Temperature 70 °F -  
Max Temperature 78 °F 84 °F 94 °F (1986)
Min Temperature 61 °F 67 °F 46 °F (1954)
Cooling Degree Days 4    
Growing Degree Days 20 (Base 50)    
Moisture  
Dew Point 63 °F    
Average Humidity 80    
Maximum Humidity 100    
Minimum Humidity 56    
Precipitation  
Precipitation 0.00 in - - ()
Sea Level Pressure  
Sea Level Pressure 30.07 in    
Wind  
Wind Speed 2 mph (East)    
Max Wind Speed 8 mph    
Max Gust Speed -    
Visibility 10 miles    
Events      
Averages and records for this station are not official NWS values.
T = Trace of Precipitation, MM = Missing Value Source: NWS Daily Summary

Daily Weather History Graph

Daily Weather History Graph

Search for Another Location

Airport:

Trip Planner

Search our weather history database for the weather conditions in past years. The results will help you decide how hot, cold, wet, or windy it might be!

Date:

Astronomy

Nov. 04, 2012 Rise Set
Actual Time 6:31 AM EST 5:35 PM EST
Civil Twilight 6:07 AM EST 5:59 PM EST
Nautical Twilight 5:40 AM EST 6:27 PM EST
Astronomical Twilight 5:13 AM EST 6:54 PM EST
Moon 10:16 PM EST (11/4) 11:08 AM EST (11/4)
Length of Visible Light 11h 52m
Length of Day
11h 04m
Waning Gibbous, 72% of the Moon is Illuminated
Nov 4
Waning Gibbous
Nov 6
Last Quarter
Nov 13
New
Nov 20
First Quarter
Nov 28
Full

Hourly Weather History & Observations

Time (EST) Temp. Dew Point Humidity Pressure Visibility Wind Dir Wind Speed Gust Speed Precip Events Conditions
12:53 AM 64.9 °F 63.0 °F 93% 30.11 in 10.0 mi Calm Calm - N/A   Clear
1:53 AM 64.0 °F 63.0 °F 96% 30.10 in 10.0 mi WNW 3.5 mph - N/A   Clear
1:53 AM 64.0 °F 64.0 °F 100% 30.09 in 10.0 mi Calm Calm - N/A   Clear
2:53 AM 63.0 °F 63.0 °F 100% 30.09 in 9.0 mi Calm Calm - N/A   Clear
3:53 AM 63.0 °F 63.0 °F 100% 30.08 in 8.0 mi Calm Calm - N/A   Partly Cloudy
4:53 AM 61.0 °F 61.0 °F 100% 30.08 in 8.0 mi Calm Calm - N/A   Clear
5:53 AM 62.1 °F 62.1 °F 100% 30.09 in 9.0 mi NNW 3.5 mph - N/A   Clear
6:53 AM 63.0 °F 63.0 °F 100% 30.11 in 10.0 mi Calm Calm - N/A   Clear
7:53 AM 68.0 °F 66.0 °F 93% 30.12 in 10.0 mi Calm Calm - N/A   Scattered Clouds
8:53 AM 73.0 °F 66.0 °F 79% 30.13 in 10.0 mi NW 3.5 mph - N/A   Scattered Clouds
9:53 AM 75.9 °F 64.9 °F 69% 30.12 in 10.0 mi Variable 4.6 mph - N/A   Scattered Clouds
10:53 AM 77.0 °F 64.0 °F 64% 30.11 in 10.0 mi East 5.8 mph - N/A   Mostly Cloudy
11:53 AM 78.1 °F 61.0 °F 56% 30.09 in 10.0 mi East 5.8 mph - N/A   Partly Cloudy
12:53 PM 78.1 °F 61.0 °F 56% 30.06 in 10.0 mi East 6.9 mph - N/A   Partly Cloudy
1:53 PM 78.1 °F 62.1 °F 58% 30.05 in 10.0 mi ESE 8.1 mph - N/A   Partly Cloudy
2:53 PM 77.0 °F 62.1 °F 60% 30.04 in 10.0 mi ESE 4.6 mph - N/A   Clear
3:53 PM 75.9 °F 63.0 °F 64% 30.03 in 10.0 mi ENE 5.8 mph - N/A   Partly Cloudy
4:53 PM 75.0 °F 61.0 °F 62% 30.02 in 10.0 mi ESE 5.8 mph - N/A   Clear
5:53 PM 73.0 °F 63.0 °F 71% 30.02 in 10.0 mi East 5.8 mph - N/A   Clear
6:53 PM 72.0 °F 63.0 °F 73% 30.03 in 10.0 mi ESE 3.5 mph - N/A   Clear
7:53 PM 73.0 °F 64.0 °F 73% 30.04 in 10.0 mi Calm Calm - N/A   Partly Cloudy
8:53 PM 70.0 °F 64.0 °F 81% 30.04 in 10.0 mi Calm Calm - N/A   Clear
9:53 PM 69.1 °F 64.0 °F 84% 30.04 in 10.0 mi Calm Calm - N/A   Partly Cloudy
10:53 PM 69.1 °F 64.9 °F 87% 30.04 in 10.0 mi Calm Calm - N/A   Partly Cloudy